Time,TemperatureF,DewpointF,PressureIn,WindDirection,WindDirectionDegrees,WindSpeedMPH,WindSpeedGustMPH,Humidity,HourlyPrecipIn,Conditions,Clouds,dailyrainin,SoftwareType,DateUTC
2013-03-14 00:02:00,49.7,38.0,30.04,North,350,9.0,18.0,65,0.00,,,0.00,weatherlink.com 1.10,2013-03-14 04:02:00,
2013-03-14 00:17:00,49.2,38.0,30.05,North,355,17.0,17.0,66,0.00,,,0.00,weatherlink.com 1.10,2013-03-14 04:17:00,
2013-03-14 00:32:00,48.4,35.0,30.05,North,355,12.0,21.0,60,0.00,,,0.00,weatherlink.com 1.10,2013-03-14 04:32:00,
2013-03-14 00:47:00,47.8,33.0,30.05,North,5,10.0,20.0,57,0.00,,,0.00,weatherlink.com 1.10,2013-03-14 04:47:00,
2013-03-14 01:02:00,47.4,34.0,30.05,North,11,15.0,20.0,59,0.00,,,0.00,weatherlink.com 1.10,2013-03-14 05:02:00,
2013-03-14 01:17:00,46.7,33.0,30.05,NNE,18,12.0,16.0,59,0.00,,,0.00,weatherlink.com 1.10,2013-03-14 05:17:00,
2013-03-14 01:32:00,46.3,33.0,30.06,NNE,16,18.0,19.0,60,0.00,,,0.00,weatherlink.com 1.10,2013-03-14 05:32:00,
2013-03-14 01:47:00,46.0,32.0,30.07,North,9,17.0,22.0,59,0.00,,,0.00,weatherlink.com 1.10,2013-03-14 05:47:00,
2013-03-14 02:02:00,45.6,31.0,30.07,NW,315,14.0,17.0,57,0.00,,,0.00,weatherlink.com 1.10,2013-03-14 06:02:00,
2013-03-14 02:17:00,45.2,31.0,30.07,NNW,335,12.0,17.0,57,0.00,,,0.00,weatherlink.com 1.10,2013-03-14 06:17:00,
2013-03-14 02:32:00,44.9,30.0,30.08,North,355,10.0,19.0,57,0.00,,,0.00,weatherlink.com 1.10,2013-03-14 06:32:00,
2013-03-14 02:47:00,44.8,32.0,30.08,NNW,336,9.0,19.0,61,0.00,,,0.00,weatherlink.com 1.10,2013-03-14 06:47:00,
2013-03-14 03:02:00,44.3,31.0,30.08,North,11,13.0,23.0,60,0.00,,,0.00,weatherlink.com 1.10,2013-03-14 07:02:00,
2013-03-14 03:17:00,43.6,30.0,30.09,North,11,11.0,16.0,59,0.00,,,0.00,weatherlink.com 1.10,2013-03-14 07:17:00,
2013-03-14 03:32:00,43.0,31.0,30.09,North,9,14.0,19.0,62,0.00,,,0.00,weatherlink.com 1.10,2013-03-14 07:32:00,
2013-03-14 03:47:00,42.0,30.0,30.09,NNW,331,12.0,23.0,62,0.00,,,0.00,weatherlink.com 1.10,2013-03-14 07:47:00,
2013-03-14 04:02:00,41.6,29.0,30.10,North,5,11.0,23.0,62,0.00,,,0.00,weatherlink.com 1.10,2013-03-14 08:02:00,
2013-03-14 04:17:00,41.0,30.0,30.10,North,5,20.0,23.0,65,0.00,,,0.00,weatherlink.com 1.10,2013-03-14 08:17:00,
2013-03-14 04:32:00,40.4,29.0,30.10,North,11,11.0,22.0,64,0.00,,,0.00,weatherlink.com 1.10,2013-03-14 08:32:00,
2013-03-14 04:47:00,39.8,28.0,30.10,NNE,15,9.0,20.0,63,0.00,,,0.00,weatherlink.com 1.10,2013-03-14 08:47:00,
2013-03-14 05:02:00,39.2,28.0,30.11,North,355,12.0,17.0,65,0.00,,,0.00,weatherlink.com 1.10,2013-03-14 09:02:00,
2013-03-14 05:17:00,38.8,27.0,30.11,North,360,10.0,19.0,63,0.00,,,0.00,weatherlink.com 1.10,2013-03-14 09:17:00,
2013-03-14 05:32:00,38.5,26.0,30.12,North,355,13.0,21.0,62,0.00,,,0.00,weatherlink.com 1.10,2013-03-14 09:32:00,
2013-03-14 05:47:00,38.4,26.0,30.12,North,355,14.0,22.0,62,0.00,,,0.00,weatherlink.com 1.10,2013-03-14 09:47:00,
2013-03-14 06:03:00,38.2,26.0,30.13,North,11,11.0,21.0,63,0.00,,,0.00,weatherlink.com 1.10,2013-03-14 10:03:00,
2013-03-14 06:18:00,37.8,27.0,30.13,NNW,337,10.0,16.0,66,0.00,,,0.00,weatherlink.com 1.10,2013-03-14 10:18:00,
2013-03-14 06:33:00,37.2,27.0,30.13,WNW,303,5.0,13.0,67,0.00,,,0.00,weatherlink.com 1.10,2013-03-14 10:33:00,
2013-03-14 06:48:00,36.9,27.0,30.15,NNW,335,3.0,19.0,67,0.00,,,0.00,weatherlink.com 1.10,2013-03-14 10:48:00,
2013-03-14 07:03:00,36.8,27.0,30.15,NNW,339,7.0,17.0,67,0.00,,,0.00,weatherlink.com 1.10,2013-03-14 11:03:00,
2013-03-14 07:18:00,36.6,27.0,30.16,NW,326,7.0,12.0,67,0.00,,,0.00,weatherlink.com 1.10,2013-03-14 11:18:00,
2013-03-14 07:33:00,36.5,27.0,30.16,NNW,327,7.0,17.0,69,0.00,,,0.00,weatherlink.com 1.10,2013-03-14 11:33:00,
2013-03-14 07:48:00,36.5,27.0,30.16,NNW,329,9.0,12.0,69,0.00,,,0.00,weatherlink.com 1.10,2013-03-14 11:48:00,
2013-03-14 08:03:00,36.6,27.0,30.18,NW,306,7.0,12.0,69,0.00,,,0.00,weatherlink.com 1.10,2013-03-14 12:03:00,
2013-03-14 08:18:00,36.8,27.0,30.18,NW,314,6.0,13.0,68,0.00,,,0.00,weatherlink.com 1.10,2013-03-14 12:18:00,
2013-03-14 08:33:00,37.7,29.0,30.19,NW,317,6.0,12.0,70,0.00,,,0.00,weatherlink.com 1.10,2013-03-14 12:33:00,
2013-03-14 08:48:00,38.9,28.0,30.19,NNW,332,8.0,15.0,66,0.00,,,0.00,weatherlink.com 1.10,2013-03-14 12:48:00,
2013-03-14 09:03:00,39.5,29.0,30.20,NNW,340,7.0,17.0,65,0.00,,,0.00,weatherlink.com 1.10,2013-03-14 13:03:00,
2013-03-14 09:18:00,40.4,28.0,30.20,NNW,338,8.0,17.0,61,0.00,,,0.00,weatherlink.com 1.10,2013-03-14 13:18:00,
2013-03-14 09:33:00,40.9,29.0,30.20,NNW,336,10.0,19.0,62,0.00,,,0.00,weatherlink.com 1.10,2013-03-14 13:33:00,
2013-03-14 09:48:00,42.0,29.0,30.21,North,360,14.0,18.0,61,0.00,,,0.00,weatherlink.com 1.10,2013-03-14 13:48:00,
2013-03-14 10:03:00,42.6,29.0,30.20,North,360,13.0,17.0,59,0.00,,,0.00,weatherlink.com 1.10,2013-03-14 14:03:00,
2013-03-14 10:18:00,42.2,28.0,30.20,NNE,22,15.0,21.0,58,0.00,,,0.00,weatherlink.com 1.10,2013-03-14 14:18:00,
2013-03-14 10:33:00,42.2,29.0,30.19,North,5,11.0,24.0,59,0.00,,,0.00,weatherlink.com 1.10,2013-03-14 14:33:00,
2013-03-14 10:48:00,42.7,29.0,30.19,North,5,11.0,18.0,59,0.00,,,0.00,weatherlink.com 1.10,2013-03-14 14:48:00,
2013-03-14 11:18:00,43.8,30.0,30.19,North,355,6.0,16.0,59,0.00,,,0.00,weatherlink.com 1.10,2013-03-14 15:18:00,
2013-03-14 11:33:00,46.5,30.0,30.19,NNW,344,6.0,16.0,52,0.00,,,0.00,weatherlink.com 1.10,2013-03-14 15:33:00,
2013-03-14 11:48:00,47.1,31.0,30.19,WNW,301,7.0,14.0,54,0.00,,,0.00,weatherlink.com 1.10,2013-03-14 15:48:00,
2013-03-14 12:03:00,47.1,30.0,30.19,NNW,344,4.0,13.0,51,0.00,,,0.00,weatherlink.com 1.10,2013-03-14 16:03:00,
2013-03-14 12:18:00,48.1,31.0,30.19,North,360,10.0,15.0,53,0.00,,,0.00,weatherlink.com 1.10,2013-03-14 16:18:00,
2013-03-14 12:33:00,48.2,30.0,30.19,NW,306,6.0,15.0,49,0.00,,,0.00,weatherlink.com 1.10,2013-03-14 16:33:00,
2013-03-14 12:48:00,50.3,32.0,30.18,NNW,330,8.0,15.0,49,0.00,,,0.00,weatherlink.com 1.10,2013-03-14 16:48:00,
2013-03-14 13:03:00,49.9,31.0,30.18,NW,320,6.0,15.0,48,0.00,,,0.00,weatherlink.com 1.10,2013-03-14 17:03:00,
2013-03-14 13:18:00,49.1,32.0,30.18,NW,311,5.0,18.0,52,0.00,,,0.00,weatherlink.com 1.10,2013-03-14 17:18:00,
2013-03-14 13:33:00,49.8,30.0,30.16,NW,325,9.0,17.0,47,0.00,,,0.00,weatherlink.com 1.10,2013-03-14 17:33:00,
2013-03-14 13:48:00,49.9,32.0,30.16,NNW,340,10.0,12.0,50,0.00,,,0.00,weatherlink.com 1.10,2013-03-14 17:48:00,
2013-03-14 14:03:00,50.9,30.0,30.15,NNW,342,4.0,14.0,45,0.00,,,0.00,weatherlink.com 1.10,2013-03-14 18:03:00,
2013-03-14 14:18:00,50.0,32.0,30.14,NNW,342,10.0,17.0,51,0.00,,,0.00,weatherlink.com 1.10,2013-03-14 18:18:00,
2013-03-14 14:33:00,50.3,32.0,30.14,NNW,338,6.0,16.0,50,0.00,,,0.00,weatherlink.com 1.10,2013-03-14 18:33:00,
2013-03-14 14:48:00,51.5,31.0,30.13,North,9,14.0,15.0,45,0.00,,,0.00,weatherlink.com 1.10,2013-03-14 18:48:00,
2013-03-14 15:03:00,52.2,32.0,30.13,NW,321,5.0,14.0,46,0.00,,,0.00,weatherlink.com 1.10,2013-03-14 19:03:00,
2013-03-14 15:18:00,52.6,30.0,30.13,NW,306,10.0,17.0,43,0.00,,,0.00,weatherlink.com 1.10,2013-03-14 19:18:00,
2013-03-14 15:33:00,52.7,32.0,30.12,North,360,12.0,12.0,45,0.00,,,0.00,weatherlink.com 1.10,2013-03-14 19:33:00,
2013-03-14 15:48:00,52.8,33.0,30.12,NW,310,10.0,14.0,48,0.00,,,0.00,weatherlink.com 1.10,2013-03-14 19:48:00,
2013-03-14 16:03:00,55.1,32.0,30.11,NW,312,8.0,12.0,42,0.00,,,0.00,weatherlink.com 1.10,2013-03-14 20:03:00,
2013-03-14 16:18:00,55.9,32.0,30.11,NW,312,6.0,13.0,41,0.00,,,0.00,weatherlink.com 1.10,2013-03-14 20:18:00,
2013-03-14 16:33:00,55.2,33.0,30.10,NW,310,6.0,11.0,43,0.00,,,0.00,weatherlink.com 1.10,2013-03-14 20:33:00,
2013-03-14 16:48:00,54.4,32.0,30.10,WNW,288,6.0,10.0,42,0.00,,,0.00,weatherlink.com 1.10,2013-03-14 20:48:00,
2013-03-14 17:03:00,54.2,31.0,30.10,WNW,292,7.0,11.0,42,0.00,,,0.00,weatherlink.com 1.10,2013-03-14 21:03:00,
2013-03-14 17:18:00,54.5,34.0,30.10,WNW,298,6.0,8.0,47,0.00,,,0.00,weatherlink.com 1.10,2013-03-14 21:18:00,
2013-03-14 17:33:00,53.5,31.0,30.10,WNW,303,9.0,14.0,42,0.00,,,0.00,weatherlink.com 1.10,2013-03-14 21:33:00,
2013-03-14 18:03:00,51.9,33.0,30.10,NW,308,9.0,13.0,48,0.00,,,0.00,weatherlink.com 1.10,2013-03-14 22:03:00,
2013-03-14 18:18:00,51.3,32.0,30.10,WNW,300,5.0,14.0,48,0.00,,,0.00,weatherlink.com 1.10,2013-03-14 22:18:00,
2013-03-14 18:33:00,50.8,32.0,30.10,NW,312,6.0,10.0,49,0.00,,,0.00,weatherlink.com 1.10,2013-03-14 22:33:00,
2013-03-14 18:48:00,50.3,33.0,30.10,WNW,287,4.0,8.0,51,0.00,,,0.00,weatherlink.com 1.10,2013-03-14 22:48:00,
2013-03-14 19:03:00,49.4,31.0,30.10,WNW,296,2.0,5.0,50,0.00,,,0.00,weatherlink.com 1.10,2013-03-14 23:03:00,
2013-03-14 19:18:00,48.3,31.0,30.11,WNW,296,2.0,4.0,52,0.00,,,0.00,weatherlink.com 1.10,2013-03-14 23:18:00,
2013-03-14 19:33:00,47.0,32.0,30.11,WNW,296,2.0,4.0,56,0.00,,,0.00,weatherlink.com 1.10,2013-03-14 23:33:00,
2013-03-14 19:48:00,45.8,33.0,30.12,WNW,296,3.0,4.0,62,0.00,,,0.00,weatherlink.com 1.10,2013-03-14 23:48:00,
2013-03-14 20:03:00,44.3,31.0,30.12,WNW,296,0.0,3.0,59,0.00,,,0.00,weatherlink.com 1.10,2013-03-15 00:03:00,
2013-03-14 20:18:00,43.1,31.0,30.12,WNW,296,0.0,1.0,62,0.00,,,0.00,weatherlink.com 1.10,2013-03-15 00:18:00,
2013-03-14 20:33:00,42.4,31.0,30.13,WNW,296,0.0,1.0,64,0.00,,,0.00,weatherlink.com 1.10,2013-03-15 00:33:00,
2013-03-14 20:48:00,41.9,31.0,30.13,WNW,296,0.0,3.0,65,0.00,,,0.00,weatherlink.com 1.10,2013-03-15 00:48:00,
2013-03-14 21:03:00,41.6,32.0,30.13,WNW,296,0.0,3.0,69,0.00,,,0.00,weatherlink.com 1.10,2013-03-15 01:03:00,
2013-03-14 21:18:00,41.1,34.0,30.13,WNW,296,1.0,3.0,75,0.00,,,0.00,weatherlink.com 1.10,2013-03-15 01:18:00,
2013-03-14 21:33:00,41.1,34.0,30.13,WNW,296,2.0,3.0,76,0.00,,,0.00,weatherlink.com 1.10,2013-03-15 01:33:00,
2013-03-14 21:48:00,41.0,33.0,30.13,WNW,296,1.0,3.0,74,0.00,,,0.00,weatherlink.com 1.10,2013-03-15 01:48:00,
2013-03-14 22:03:00,40.8,32.0,30.13,WNW,296,1.0,2.0,72,0.00,,,0.00,weatherlink.com 1.10,2013-03-15 02:03:00,
2013-03-14 22:18:00,40.6,33.0,30.14,WNW,296,2.0,3.0,73,0.00,,,0.00,weatherlink.com 1.10,2013-03-15 02:18:00,
2013-03-14 22:33:00,40.4,32.0,30.14,WNW,296,0.0,2.0,71,0.00,,,0.00,weatherlink.com 1.10,2013-03-15 02:33:00,
2013-03-14 22:48:00,40.3,32.0,30.14,WNW,296,0.0,3.0,72,0.00,,,0.00,weatherlink.com 1.10,2013-03-15 02:48:00,
2013-03-14 23:03:00,40.1,32.0,30.14,WNW,296,1.0,3.0,73,0.00,,,0.00,weatherlink.com 1.10,2013-03-15 03:03:00,
2013-03-14 23:18:00,40.0,32.0,30.14,WNW,290,1.0,5.0,73,0.00,,,0.00,weatherlink.com 1.10,2013-03-15 03:18:00,
2013-03-14 23:33:00,40.1,31.0,30.14,WNW,288,4.0,6.0,70,0.00,,,0.00,weatherlink.com 1.10,2013-03-15 03:33:00,
2013-03-14 23:48:00,41.0,32.0,30.13,WNW,284,4.0,7.0,70,0.00,,,0.00,weatherlink.com 1.10,2013-03-15 03:48:00,